Time,TemperatureF,DewpointF,PressureIn,WindDirection,WindDirectionDegrees,WindSpeedMPH,WindSpeedGustMPH,Humidity,HourlyPrecipIn,Conditions,Clouds,dailyrainin,SoftwareType,DateUTC
2013-06-03 00:14:00,60.8,61.0,29.90,WSW,253,1.0,2.0,99,0.00,,,0.00,weatherlink.com 1.10,2013-06-03 04:14:00,
2013-06-03 00:29:00,61.0,61.0,29.90,WSW,253,0.0,2.0,99,0.00,,,0.00,weatherlink.com 1.10,2013-06-03 04:29:00,
2013-06-03 00:44:00,60.9,61.0,29.90,WSW,253,0.0,0.0,99,0.00,,,0.00,weatherlink.com 1.10,2013-06-03 04:44:00,
2013-06-03 00:59:00,60.7,61.0,29.90,WSW,253,0.0,1.0,99,0.00,,,0.00,weatherlink.com 1.10,2013-06-03 04:59:00,
2013-06-03 01:14:00,60.4,60.0,29.90,WSW,253,0.0,1.0,99,0.00,,,0.00,weatherlink.com 1.10,2013-06-03 05:14:00,
2013-06-03 01:29:00,60.4,60.0,29.90,WSW,253,1.0,1.0,99,0.00,,,0.00,weatherlink.com 1.10,2013-06-03 05:29:00,
2013-06-03 01:44:00,60.2,60.0,29.90,West,259,0.0,3.0,99,0.00,,,0.00,weatherlink.com 1.10,2013-06-03 05:44:00,
2013-06-03 01:59:00,59.9,60.0,29.90,West,259,0.0,0.0,99,0.00,,,0.00,weatherlink.com 1.10,2013-06-03 05:59:00,
2013-06-03 02:14:00,59.8,60.0,29.90,West,259,0.0,1.0,99,0.00,,,0.00,weatherlink.com 1.10,2013-06-03 06:14:00,
2013-06-03 02:29:00,59.8,60.0,29.90,West,259,0.0,2.0,99,0.00,,,0.00,weatherlink.com 1.10,2013-06-03 06:29:00,
2013-06-03 02:44:00,59.8,60.0,29.90,West,259,0.0,0.0,99,0.00,,,0.00,weatherlink.com 1.10,2013-06-03 06:44:00,
2013-06-03 02:59:00,59.6,59.0,29.89,West,259,0.0,0.0,99,0.00,,,0.00,weatherlink.com 1.10,2013-06-03 06:59:00,
2013-06-03 03:14:00,59.4,59.0,29.89,West,259,0.0,0.0,99,0.00,,,0.00,weatherlink.com 1.10,2013-06-03 07:14:00,
2013-06-03 03:29:00,59.3,59.0,29.89,West,259,0.0,0.0,99,0.00,,,0.00,weatherlink.com 1.10,2013-06-03 07:29:00,
2013-06-03 03:44:00,59.1,59.0,29.88,West,259,0.0,1.0,99,0.00,,,0.00,weatherlink.com 1.10,2013-06-03 07:44:00,
2013-06-03 03:59:00,59.1,59.0,29.88,West,259,0.0,2.0,99,0.00,,,0.00,weatherlink.com 1.10,2013-06-03 07:59:00,
2013-06-03 04:14:00,59.1,59.0,29.88,West,259,0.0,2.0,99,0.00,,,0.00,weatherlink.com 1.10,2013-06-03 08:14:00,
2013-06-03 04:29:00,59.3,59.0,29.88,West,259,1.0,2.0,99,0.00,,,0.00,weatherlink.com 1.10,2013-06-03 08:29:00,
2013-06-03 04:44:00,59.4,59.0,29.88,West,259,0.0,2.0,99,0.00,,,0.00,weatherlink.com 1.10,2013-06-03 08:44:00,
2013-06-03 04:59:00,59.4,59.0,29.88,West,268,1.0,3.0,99,0.00,,,0.00,weatherlink.com 1.10,2013-06-03 08:59:00,
2013-06-03 05:14:00,59.5,59.0,29.88,West,268,1.0,2.0,99,0.00,,,0.00,weatherlink.com 1.10,2013-06-03 09:14:00,
2013-06-03 05:29:00,59.4,59.0,29.88,West,268,1.0,1.0,99,0.00,,,0.00,weatherlink.com 1.10,2013-06-03 09:29:00,
2013-06-03 05:44:00,59.4,59.0,29.88,West,268,0.0,1.0,99,0.00,,,0.00,weatherlink.com 1.10,2013-06-03 09:44:00,
2013-06-03 05:59:00,59.4,59.0,29.89,West,268,0.0,1.0,99,0.00,,,0.00,weatherlink.com 1.10,2013-06-03 09:59:00,
2013-06-03 06:14:00,59.4,59.0,29.89,West,268,0.0,0.0,99,0.00,,,0.00,weatherlink.com 1.10,2013-06-03 10:14:00,
2013-06-03 06:25:00,59.3,59.0,29.90,West,272,0.0,1.0,99,0.00,,,0.00,Wunderground v.1.15,2013-06-03 10:25:00,
2013-06-03 06:30:00,59.3,59.0,29.90,West,272,0.0,2.0,99,0.00,,,0.00,weatherlink.com 1.10,2013-06-03 10:30:00,
2013-06-03 06:35:00,59.2,58.9,29.90,West,272,0.0,0.0,99,0.00,,,0.00,Wunderground v.1.15,2013-06-03 10:35:00,
2013-06-03 06:44:00,59.3,59.0,29.90,West,272,0.0,0.0,99,0.00,,,0.00,weatherlink.com 1.10,2013-06-03 10:44:00,
2013-06-03 06:50:00,59.2,58.9,29.90,West,272,0.0,0.0,99,0.00,,,0.00,Wunderground v.1.15,2013-06-03 10:50:00,
2013-06-03 07:00:00,59.3,59.0,29.90,West,272,0.0,0.0,99,0.00,,,0.00,weatherlink.com 1.10,2013-06-03 11:00:00,
2013-06-03 07:05:00,59.3,59.0,29.90,West,272,0.0,0.0,99,0.00,,,0.00,Wunderground v.1.15,2013-06-03 11:05:00,
2013-06-03 07:14:00,59.3,59.0,29.91,West,272,0.0,0.0,99,0.00,,,0.00,weatherlink.com 1.10,2013-06-03 11:14:00,
2013-06-03 07:20:00,59.3,59.0,29.90,West,272,0.0,0.0,99,0.00,,,0.00,Wunderground v.1.15,2013-06-03 11:20:00,
2013-06-03 07:30:00,59.4,59.1,29.90,West,272,0.0,0.0,99,0.00,,,0.00,Wunderground v.1.15,2013-06-03 11:30:00,
2013-06-03 07:35:00,59.4,59.1,29.91,West,272,0.0,0.0,99,0.00,,,0.00,Wunderground v.1.15,2013-06-03 11:35:00,
2013-06-03 07:40:00,59.5,59.2,29.91,West,272,0.0,0.0,99,0.00,,,0.00,Wunderground v.1.15,2013-06-03 11:40:00,
2013-06-03 07:50:00,59.6,59.3,29.91,West,272,0.0,0.0,99,0.00,,,0.00,Wunderground v.1.15,2013-06-03 11:50:00,
2013-06-03 08:00:00,59.7,60.0,29.91,West,272,0.0,0.0,99,0.00,,,0.00,weatherlink.com 1.10,2013-06-03 12:00:00,
2013-06-03 08:05:00,59.8,59.5,29.91,West,272,0.0,0.0,99,0.00,,,0.00,Wunderground v.1.15,2013-06-03 12:05:00,
2013-06-03 08:15:00,60.1,60.1,29.92,West,272,1.0,1.0,100,0.00,,,0.00,Wunderground v.1.15,2013-06-03 12:15:00,
2013-06-03 08:20:00,60.2,59.9,29.92,West,272,1.0,2.0,99,0.00,,,0.00,Wunderground v.1.15,2013-06-03 12:20:00,
2013-06-03 08:30:00,59.9,59.6,29.92,West,272,1.0,1.0,99,0.00,,,0.00,Wunderground v.1.15,2013-06-03 12:30:00,
2013-06-03 08:40:00,59.9,59.6,29.92,West,272,0.0,0.0,99,0.00,,,0.00,Wunderground v.1.15,2013-06-03 12:40:00,
2013-06-03 08:45:00,60.0,60.0,29.92,West,272,0.0,0.0,100,0.00,,,0.00,Wunderground v.1.15,2013-06-03 12:45:00,
2013-06-03 08:50:00,60.1,59.8,29.92,West,272,0.0,0.0,99,0.00,,,0.00,Wunderground v.1.15,2013-06-03 12:50:00,
2013-06-03 09:00:00,60.1,59.8,29.92,West,272,0.0,1.0,99,0.00,,,0.00,Wunderground v.1.15,2013-06-03 13:00:00,
2013-06-03 09:10:00,59.8,59.5,29.92,West,272,0.0,0.0,99,0.00,,,0.00,Wunderground v.1.15,2013-06-03 13:10:00,
2013-06-03 09:15:00,59.8,59.5,29.92,West,272,0.0,0.0,99,0.00,,,0.00,Wunderground v.1.15,2013-06-03 13:15:00,
2013-06-03 09:20:00,59.7,59.4,29.92,West,273,0.0,0.0,99,0.00,,,0.00,Wunderground v.1.15,2013-06-03 13:20:00,
2013-06-03 09:25:00,59.6,59.3,29.92,West,273,0.0,0.0,99,0.00,,,0.00,Wunderground v.1.15,2013-06-03 13:25:00,
2013-06-03 09:32:00,59.6,59.0,29.92,West,278,1.0,2.0,99,0.00,,,0.00,weatherlink.com 1.10,2013-06-03 13:32:00,
2013-06-03 09:40:00,59.7,59.4,29.92,West,278,0.0,0.0,99,0.00,,,0.00,Wunderground v.1.15,2013-06-03 13:40:00,
2013-06-03 09:47:00,59.7,60.0,29.93,West,278,0.0,1.0,99,0.00,,,0.00,weatherlink.com 1.10,2013-06-03 13:47:00,
2013-06-03 09:55:00,59.6,59.3,29.93,West,278,0.0,1.0,99,0.00,,,0.00,Wunderground v.1.15,2013-06-03 13:55:00,
2013-06-03 10:00:00,59.9,59.6,29.93,West,278,0.0,0.0,99,0.00,,,0.00,Wunderground v.1.15,2013-06-03 14:00:00,
2013-06-03 10:05:00,60.3,60.0,29.93,West,278,0.0,1.0,99,0.00,,,0.00,Wunderground v.1.15,2013-06-03 14:05:00,
2013-06-03 10:10:00,60.5,60.2,29.93,WNW,301,1.0,1.0,99,0.00,,,0.00,Wunderground v.1.15,2013-06-03 14:10:00,
2013-06-03 10:17:00,60.9,61.0,29.93,WSW,247,2.0,4.0,99,0.00,,,0.00,weatherlink.com 1.10,2013-06-03 14:17:00,
2013-06-03 10:25:00,61.6,61.3,29.94,West,276,2.0,2.0,99,0.00,,,0.00,Wunderground v.1.15,2013-06-03 14:25:00,
2013-06-03 10:30:00,61.8,61.5,29.94,West,273,1.0,2.0,99,0.00,,,0.00,Wunderground v.1.15,2013-06-03 14:30:00,
2013-06-03 10:40:00,62.3,61.7,29.93,SW,219,2.0,2.0,98,0.00,,,0.00,Wunderground v.1.15,2013-06-03 14:40:00,
2013-06-03 10:45:00,62.5,61.6,29.93,West,279,2.0,2.0,97,0.00,,,0.00,Wunderground v.1.15,2013-06-03 14:45:00,
2013-06-03 10:50:00,62.9,62.0,29.93,WNW,292,2.0,2.0,97,0.00,,,0.00,Wunderground v.1.15,2013-06-03 14:50:00,
2013-06-03 11:00:00,63.3,61.8,29.93,NW,326,2.0,2.0,95,0.00,,,0.00,Wunderground v.1.15,2013-06-03 15:00:00,
2013-06-03 11:05:00,63.4,61.6,29.93,WNW,300,2.0,2.0,94,0.00,,,0.00,Wunderground v.1.15,2013-06-03 15:05:00,
2013-06-03 11:15:00,64.0,62.2,29.93,West,275,2.0,3.0,94,0.00,,,0.00,Wunderground v.1.15,2013-06-03 15:15:00,
2013-06-03 11:20:00,64.2,61.8,29.94,NW,307,2.0,5.0,92,0.00,,,0.00,Wunderground v.1.15,2013-06-03 15:20:00,
2013-06-03 11:25:00,64.2,60.9,29.93,NNW,327,2.0,5.0,89,0.00,,,0.00,Wunderground v.1.15,2013-06-03 15:25:00,
2013-06-03 11:33:00,64.6,61.0,29.93,NNE,18,2.0,11.0,87,0.00,,,0.00,weatherlink.com 1.10,2013-06-03 15:33:00,
2013-06-03 11:40:00,65.1,60.8,29.94,SSE,148,4.0,4.0,86,0.00,,,0.00,Wunderground v.1.15,2013-06-03 15:40:00,
2013-06-03 11:48:00,65.6,60.0,29.94,West,265,2.0,9.0,83,0.00,,,0.00,weatherlink.com 1.10,2013-06-03 15:48:00,
2013-06-03 11:55:00,65.7,60.4,29.93,NW,304,4.0,4.0,83,0.00,,,0.00,Wunderground v.1.15,2013-06-03 15:55:00,
2013-06-03 12:00:00,66.0,60.0,29.94,WNW,294,3.0,3.0,81,0.00,,,0.00,Wunderground v.1.15,2013-06-03 16:00:00,
2013-06-03 12:10:00,65.6,60.3,29.94,WNW,303,3.0,3.0,83,0.00,,,0.00,Wunderground v.1.15,2013-06-03 16:10:00,
2013-06-03 12:15:00,65.4,60.1,29.94,NNE,32,3.0,3.0,83,0.00,,,0.00,Wunderground v.1.15,2013-06-03 16:15:00,
2013-06-03 12:20:00,66.0,61.4,29.94,West,271,4.0,4.0,85,0.00,,,0.00,Wunderground v.1.15,2013-06-03 16:20:00,
2013-06-03 12:25:00,66.5,60.1,29.94,WSW,252,4.0,5.0,80,0.00,,,0.00,Wunderground v.1.15,2013-06-03 16:25:00,
2013-06-03 12:34:00,66.9,62.0,29.93,SSW,199,6.0,11.0,83,0.00,,,0.00,weatherlink.com 1.10,2013-06-03 16:34:00,
2013-06-03 12:40:00,66.7,58.5,29.93,WNW,294,5.0,5.0,75,0.00,,,0.00,Wunderground v.1.15,2013-06-03 16:40:00,
2013-06-03 12:49:00,66.6,60.0,29.93,WSW,256,5.0,11.0,80,0.00,,,0.00,weatherlink.com 1.10,2013-06-03 16:49:00,
2013-06-03 12:55:00,66.9,59.8,29.93,WNW,289,5.0,5.0,78,0.00,,,0.00,Wunderground v.1.15,2013-06-03 16:55:00,
2013-06-03 13:05:00,67.4,61.0,29.93,SW,235,2.0,11.0,81,0.00,,,0.00,weatherlink.com 1.10,2013-06-03 17:05:00,
2013-06-03 13:10:00,68.1,61.3,29.93,West,273,4.0,5.0,79,0.00,,,0.00,Wunderground v.1.15,2013-06-03 17:10:00,
2013-06-03 13:19:00,68.2,60.0,29.93,WNW,290,4.0,13.0,76,0.00,,,0.00,weatherlink.com 1.10,2013-06-03 17:19:00,
2013-06-03 13:25:00,68.4,60.5,29.93,NW,316,5.0,5.0,76,0.00,,,0.00,Wunderground v.1.15,2013-06-03 17:25:00,
2013-06-03 13:30:00,68.4,61.3,29.93,NW,311,5.0,5.0,78,0.00,,,0.00,Wunderground v.1.15,2013-06-03 17:30:00,
2013-06-03 13:40:00,68.4,60.5,29.93,WSW,257,5.0,8.0,76,0.00,,,0.00,Wunderground v.1.15,2013-06-03 17:40:00,
2013-06-03 13:45:00,68.7,60.1,29.93,West,271,5.0,8.0,74,0.00,,,0.00,Wunderground v.1.15,2013-06-03 17:45:00,
2013-06-03 13:50:00,69.1,62.0,29.93,NW,319,4.0,10.0,78,0.00,,,0.00,weatherlink.com 1.10,2013-06-03 17:50:00,
2013-06-03 14:00:00,68.6,59.6,29.92,SSW,197,5.0,5.0,73,0.00,,,0.00,Wunderground v.1.15,2013-06-03 18:00:00,
2013-06-03 14:05:00,67.8,59.6,29.92,NW,313,4.0,5.0,75,0.00,,,0.00,Wunderground v.1.15,2013-06-03 18:05:00,
2013-06-03 14:15:00,68.0,61.2,29.92,West,264,4.0,4.0,79,0.00,,,0.00,Wunderground v.1.15,2013-06-03 18:15:00,
2013-06-03 14:20:00,68.9,60.3,29.91,NNE,17,3.0,3.0,74,0.00,,,0.00,Wunderground v.1.15,2013-06-03 18:20:00,
2013-06-03 14:25:00,69.1,59.3,29.91,West,273,4.0,6.0,71,0.00,,,0.00,Wunderground v.1.15,2013-06-03 18:25:00,
2013-06-03 14:35:00,68.7,60.0,29.91,WNW,285,4.0,9.0,74,0.00,,,0.00,weatherlink.com 1.10,2013-06-03 18:35:00,
2013-06-03 14:40:00,69.0,58.4,29.91,WSW,239,4.0,4.0,69,0.00,,,0.00,Wunderground v.1.15,2013-06-03 18:40:00,
2013-06-03 14:45:00,69.2,60.6,29.90,WNW,287,4.0,4.0,74,0.00,,,0.00,Wunderground v.1.15,2013-06-03 18:45:00,
2013-06-03 14:50:00,69.3,59.0,29.91,NW,307,4.0,11.0,69,0.00,,,0.00,weatherlink.com 1.10,2013-06-03 18:50:00,
2013-06-03 15:00:00,69.3,58.7,29.90,NW,309,4.0,6.0,69,0.00,,,0.00,Wunderground v.1.15,2013-06-03 19:00:00,
2013-06-03 15:05:00,69.3,58.3,29.90,WNW,291,4.0,6.0,68,0.00,,,0.00,Wunderground v.1.15,2013-06-03 19:05:00,
2013-06-03 15:15:00,69.7,57.4,29.89,WNW,284,5.0,5.0,65,0.00,,,0.00,Wunderground v.1.15,2013-06-03 19:15:00,
2013-06-03 15:20:00,69.4,55.8,29.89,WNW,301,5.0,7.0,62,0.00,,,0.00,Wunderground v.1.15,2013-06-03 19:20:00,
2013-06-03 15:25:00,69.5,58.5,29.89,WNW,292,5.0,7.0,68,0.00,,,0.00,Wunderground v.1.15,2013-06-03 19:25:00,
2013-06-03 15:30:00,69.7,57.4,29.89,West,267,5.0,5.0,65,0.00,,,0.00,Wunderground v.1.15,2013-06-03 19:30:00,
2013-06-03 15:40:00,70.5,56.4,29.89,WSW,251,4.0,4.0,61,0.00,,,0.00,Wunderground v.1.15,2013-06-03 19:40:00,
2013-06-03 15:50:00,71.0,58.6,29.89,WNW,285,4.0,4.0,65,0.00,,,0.00,Wunderground v.1.15,2013-06-03 19:50:00,
2013-06-03 15:55:00,71.1,59.2,29.89,West,271,4.0,5.0,66,0.00,,,0.00,Wunderground v.1.15,2013-06-03 19:55:00,
2013-06-03 16:00:00,71.3,60.2,29.89,WSW,254,4.0,4.0,68,0.00,,,0.00,Wunderground v.1.15,2013-06-03 20:00:00,
2013-06-03 16:06:00,71.2,58.0,29.89,NNW,346,3.0,8.0,63,0.00,,,0.00,weatherlink.com 1.10,2013-06-03 20:06:00,
2013-06-03 16:15:00,70.7,56.1,29.89,North,349,3.0,3.0,60,0.00,,,0.00,Wunderground v.1.15,2013-06-03 20:15:00,
2013-06-03 16:20:00,70.6,58.3,29.89,NW,308,4.0,4.0,65,0.00,,,0.00,Wunderground v.1.15,2013-06-03 20:20:00,
2013-06-03 16:30:00,70.8,58.4,29.89,ENE,63,3.0,3.0,65,0.00,,,0.00,Wunderground v.1.15,2013-06-03 20:30:00,
2013-06-03 16:37:00,70.7,56.0,29.89,West,280,2.0,11.0,59,0.00,,,0.00,weatherlink.com 1.10,2013-06-03 20:37:00,
2013-06-03 16:45:00,71.1,55.6,29.89,WNW,294,3.0,5.0,58,0.00,,,0.00,Wunderground v.1.15,2013-06-03 20:45:00,
2013-06-03 16:50:00,71.2,56.1,29.89,WNW,298,4.0,4.0,59,0.00,,,0.00,Wunderground v.1.15,2013-06-03 20:50:00,
2013-06-03 16:55:00,70.9,55.9,29.88,West,279,4.0,4.0,59,0.00,,,0.00,Wunderground v.1.15,2013-06-03 20:55:00,
2013-06-03 17:00:00,71.3,57.2,29.88,West,266,3.0,3.0,61,0.00,,,0.00,Wunderground v.1.15,2013-06-03 21:00:00,
2013-06-03 17:07:00,71.5,58.0,29.88,West,278,7.0,8.0,63,0.00,,,0.00,weatherlink.com 1.10,2013-06-03 21:07:00,
2013-06-03 17:15:00,71.2,60.1,29.88,WSW,242,3.0,3.0,68,0.00,,,0.00,Wunderground v.1.15,2013-06-03 21:15:00,
2013-06-03 17:20:00,71.7,57.5,29.88,SW,232,2.0,3.0,61,0.00,,,0.00,Wunderground v.1.15,2013-06-03 21:20:00,
2013-06-03 17:25:00,71.8,58.1,29.88,WSW,241,3.0,4.0,62,0.00,,,0.00,Wunderground v.1.15,2013-06-03 21:25:00,
2013-06-03 17:30:00,72.0,57.4,29.88,West,271,3.0,5.0,60,0.00,,,0.00,Wunderground v.1.15,2013-06-03 21:30:00,
2013-06-03 17:37:00,71.9,56.0,29.88,NW,309,3.0,7.0,57,0.00,,,0.00,weatherlink.com 1.10,2013-06-03 21:37:00,
2013-06-03 17:45:00,71.5,56.9,29.88,NNW,334,3.0,4.0,60,0.00,,,0.00,Wunderground v.1.15,2013-06-03 21:45:00,
2013-06-03 17:53:00,71.3,57.0,29.88,West,263,1.0,6.0,60,0.00,,,0.00,weatherlink.com 1.10,2013-06-03 21:53:00,
2013-06-03 18:00:00,71.5,57.8,29.88,West,280,3.0,3.0,62,0.00,,,0.00,Wunderground v.1.15,2013-06-03 22:00:00,
2013-06-03 18:05:00,71.6,57.9,29.88,WSW,245,3.0,3.0,62,0.00,,,0.00,Wunderground v.1.15,2013-06-03 22:05:00,
2013-06-03 18:10:00,71.8,58.1,29.87,WNW,302,3.0,3.0,62,0.00,,,0.00,Wunderground v.1.15,2013-06-03 22:10:00,
2013-06-03 18:20:00,71.7,57.1,29.87,North,360,3.0,3.0,60,0.00,,,0.00,Wunderground v.1.15,2013-06-03 22:20:00,
2013-06-03 18:30:00,71.9,59.1,29.87,West,267,3.0,3.0,64,0.00,,,0.00,Wunderground v.1.15,2013-06-03 22:30:00,
2013-06-03 18:35:00,71.8,59.4,29.86,West,266,3.0,3.0,65,0.00,,,0.00,Wunderground v.1.15,2013-06-03 22:35:00,
2013-06-03 18:45:00,71.5,58.2,29.87,WSW,257,3.0,4.0,63,0.00,,,0.00,Wunderground v.1.15,2013-06-03 22:45:00,
2013-06-03 18:50:00,71.1,57.4,29.87,West,274,4.0,5.0,62,0.00,,,0.00,Wunderground v.1.15,2013-06-03 22:50:00,
2013-06-03 19:00:00,70.8,58.0,29.87,WNW,288,3.0,3.0,64,0.00,,,0.00,Wunderground v.1.15,2013-06-03 23:00:00,
2013-06-03 19:05:00,71.1,56.5,29.87,NNW,329,3.0,3.0,60,0.00,,,0.00,Wunderground v.1.15,2013-06-03 23:05:00,
2013-06-03 19:10:00,71.0,56.9,29.87,WNW,298,3.0,4.0,61,0.00,,,0.00,Wunderground v.1.15,2013-06-03 23:10:00,
2013-06-03 19:20:00,70.1,57.4,29.88,WNW,296,3.0,4.0,64,0.00,,,0.00,Wunderground v.1.15,2013-06-03 23:20:00,
2013-06-03 19:30:00,69.7,58.3,29.88,NW,319,3.0,3.0,67,0.00,,,0.00,Wunderground v.1.15,2013-06-03 23:30:00,
2013-06-03 19:39:00,69.4,58.0,29.88,West,274,3.0,7.0,68,0.00,,,0.00,weatherlink.com 1.10,2013-06-03 23:39:00,
2013-06-03 19:45:00,69.0,56.7,29.88,West,281,3.0,3.0,65,0.00,,,0.00,Wunderground v.1.15,2013-06-03 23:45:00,
2013-06-03 19:55:00,68.2,57.0,29.89,West,273,2.0,7.0,67,0.00,,,0.00,weatherlink.com 1.10,2013-06-03 23:55:00,
2013-06-03 20:00:00,67.7,58.3,29.89,West,267,2.0,2.0,72,0.00,,,0.00,Wunderground v.1.15,2013-06-04 00:00:00,
2013-06-03 20:09:00,67.1,57.0,29.89,West,269,1.0,4.0,69,0.00,,,0.00,weatherlink.com 1.10,2013-06-04 00:09:00,
2013-06-03 20:15:00,66.7,57.0,29.89,West,269,2.0,2.0,71,0.00,,,0.00,Wunderground v.1.15,2013-06-04 00:15:00,
2013-06-03 20:20:00,66.3,57.4,29.89,West,268,1.0,1.0,73,0.00,,,0.00,Wunderground v.1.15,2013-06-04 00:20:00,
2013-06-03 20:30:00,65.6,55.5,29.90,West,261,1.0,3.0,70,0.00,,,0.00,Wunderground v.1.15,2013-06-04 00:30:00,
2013-06-03 20:39:00,65.0,56.0,29.90,NNW,336,2.0,5.0,72,0.00,,,0.00,weatherlink.com 1.10,2013-06-04 00:39:00,
2013-06-03 20:45:00,64.7,55.1,29.90,West,280,1.0,2.0,71,0.00,,,0.00,Wunderground v.1.15,2013-06-04 00:45:00,
2013-06-03 20:50:00,64.4,54.8,29.90,WNW,290,1.0,1.0,71,0.00,,,0.00,Wunderground v.1.15,2013-06-04 00:50:00,
2013-06-03 20:55:00,64.2,55.0,29.90,WSW,252,1.0,2.0,72,0.00,,,0.00,Wunderground v.1.15,2013-06-04 00:55:00,
2013-06-03 21:00:00,64.0,55.2,29.90,NW,310,2.0,2.0,73,0.00,,,0.00,Wunderground v.1.15,2013-06-04 01:00:00,
2013-06-03 21:10:00,63.9,54.0,29.91,WNW,282,2.0,5.0,71,0.00,,,0.00,weatherlink.com 1.10,2013-06-04 01:10:00,
2013-06-03 21:20:00,63.8,54.6,29.91,West,280,2.0,2.0,72,0.00,,,0.00,Wunderground v.1.15,2013-06-04 01:20:00,
2013-06-03 21:25:00,63.8,54.6,29.92,West,280,1.0,2.0,72,0.00,,,0.00,Wunderground v.1.15,2013-06-04 01:25:00,
2013-06-03 21:40:00,63.6,55.0,29.92,WNW,302,2.0,3.0,73,0.00,,,0.00,weatherlink.com 1.10,2013-06-04 01:40:00,
2013-06-03 21:55:00,63.3,56.0,29.92,WNW,289,2.0,4.0,76,0.00,,,0.00,weatherlink.com 1.10,2013-06-04 01:55:00,
2013-06-03 22:10:00,63.0,56.0,29.93,West,274,1.0,4.0,77,0.00,,,0.00,weatherlink.com 1.10,2013-06-04 02:10:00,
2013-06-03 22:25:00,62.8,56.0,29.94,West,274,0.0,3.0,77,0.00,,,0.00,weatherlink.com 1.10,2013-06-04 02:25:00,
2013-06-03 22:40:00,62.7,56.0,29.95,West,274,0.0,2.0,78,0.00,,,0.00,weatherlink.com 1.10,2013-06-04 02:40:00,
2013-06-03 22:55:00,62.6,55.0,29.95,NE,36,0.0,2.0,75,0.00,,,0.00,weatherlink.com 1.10,2013-06-04 02:55:00,
2013-06-03 23:10:00,62.2,55.0,29.95,NE,36,0.0,0.0,78,0.00,,,0.00,weatherlink.com 1.10,2013-06-04 03:10:00,
2013-06-03 23:25:00,61.5,55.0,29.96,NE,36,0.0,0.0,80,0.00,,,0.00,weatherlink.com 1.10,2013-06-04 03:25:00,
2013-06-03 23:40:00,60.9,55.0,29.96,NE,35,0.0,1.0,81,0.00,,,0.00,weatherlink.com 1.10,2013-06-04 03:40:00,
2013-06-03 23:55:00,60.9,55.0,29.96,ENE,64,0.0,2.0,81,0.00,,,0.00,weatherlink.com 1.10,2013-06-04 03:55:00,